sat.trackr.live / text

‹ back to catalog

STARLINK-34985

NORAD 65379 · 2025-191A

PAYLOAD ACTIVE UNKNOWN

§ Identity

Operator
Country
US
Launch date
2025-08-30
Launch site
AFWTR
Launch vehicle
Mass (kg)
RCS (m²)

Purposes: comms

External: N2YO · Heavens-Above · Gunter

§ Orbital elements

Epoch: 2026-09-20T22:16:08.317920Z

Period
93.91 min
Inclination
97.2848°
Eccentricity
0.0002008
Mean motion
15.33439290 rev/d
Perigee alt
464.2 km
Apogee alt
466.9 km
Semi-major
6,843.7 km
B*
5.0475e-5
RAAN
129.9362°
Arg perigee
88.5039°
Mean anomaly
271.6434°
Rev number
5,970

§ Raw data

STARLINK-349851 65379U 25191A   26263.92787405  .00001554  00000+0  50475-4 0  99982 65379  97.2848 129.9362 0002008  88.5039 271.6434 15.33439290 59702

JSON: /api/v1/satellites/65379 · /tle

For live sub-satellite position, see the globe view (requires WebGL).

§ Visibility from observer

Set your observer location to see the next 7 days of passes ≥ 10°. The values pass through the URL so the page stays shareable.

No JS? Fill the form by hand. The geolocation button needs JavaScript.